Theta_e
307 309 312 312 319 302 309 310 303 306 313 310 304 307 310 309 304 300 309 309 314 325 325 327 330 328 328 331 331 331 329 330 329 329 330 330 331 332 332 334 335 336 337 337 337 341 343 345 346 347 348 349 349 350 351 351 352 352 353 356 355 355 356
305 309 310 309 314 305 305 303 307 315 315 312 305 297 302 302 297 300 307 305 307 307 303 324 327 324 326 327 329 329 328 328 328 328 329 331 331 332 333 335 336 337 338 338 338 341 344 345 347 348 349 349 350 351 351 351 352 351 352 355 355 355 355
306 312 307 306 307 309 307 307 314 307 300 299 304 303 295 295 295 297 304 308 308 309 308 319 321 323 324 325 328 327 326 327 327 327 329 332 332 332 333 334 334 336 337 338 337 339 343 346 348 348 350 350 350 351 352 352 352 353 353 356 355 356 356
306 307 306 298 298 303 305 308 311 311 304 300 300 301 303 301 296 296 296 304 299 312 313 320 320 324 325 325 326 325 326 327 328 328 329 331 332 331 332 332 334 336 337 337 337 338 341 345 347 349 350 350 350 351 352 352 353 354 354 355 355 354 356
304 297 299 298 298 295 297 295 298 307 305 310 305 306 303 299 297 295 294 294 301 308 318 322 322 325 327 327 326 326 327 328 329 330 330 331 333 331 332 332 333 335 336 337 338 339 341 345 348 349 350 349 350 352 352 353 352 353 353 355 355 354 356
293 294 299 301 302 299 296 295 295 299 299 301 297 295 303 306 299 293 295 294 301 315 326 325 325 327 329 330 329 327 329 330 330 331 331 332 332 331 332 333 334 335 335 336 338 340 341 344 347 348 349 350 350 351 352 353 353 352 353 354 354 354 356
297 300 304 303 305 303 300 300 297 298 298 301 294 289 295 302 305 308 303 299 302 318 326 326 327 328 330 330 332 331 332 332 332 333 336 337 334 334 332 333 334 335 335 336 337 339 340 343 346 347 349 349 350 351 353 353 353 352 353 353 354 354 355
300 305 305 303 303 303 300 300 300 298 297 302 300 294 298 300 304 301 299 298 304 319 327 327 328 329 331 332 330 330 332 333 333 333 334 334 336 336 338 333 335 335 335 336 336 338 339 342 344 346 348 349 350 351 353 352 353 353 353 353 353 353 353
292 296 299 300 303 301 295 295 295 298 298 301 303 303 302 299 302 304 298 293 298 315 329 327 328 328 329 330 332 332 331 332 333 333 333 334 338 339 336 337 332 334 334 335 335 338 339 342 343 345 348 349 349 350 352 352 353 353 353 352 352 352 352
285 286 286 289 292 296 300 301 299 299 298 297 298 298 298 291 300 303 298 297 304 316 324 323 325 326 326 328 329 332 333 331 331 333 333 334 337 337 336 337 336 332 333 335 336 337 338 341 342 344 346 348 349 350 351 352 352 352 353 351 351 351 351
288 291 293 299 305 299 296 301 309 308 306 299 298 297 295 291 299 301 301 303 308 315 319 320 322 324 324 325 327 329 330 331 331 333 333 332 335 337 336 336 337 335 332 334 336 338 338 340 341 343 345 347 348 349 350 351 352 352 352 350 350 351 350
298 298 299 302 303 299 303 309 309 311 311 309 303 295 292 298 301 295 305 310 313 314 318 319 321 323 324 326 328 329 329 331 331 332 334 338 339 337 337 338 337 335 334 335 335 337 338 339 341 342 345 346 347 348 348 350 351 351 351 349 349 349 350
299 301 303 305 305 309 309 311 311 311 312 312 310 310 308 305 300 295 308 314 312 315 319 321 322 323 324 326 327 329 331 333 333 333 334 336 336 335 338 337 337 337 337 337 336 335 338 339 341 342 344 345 347 347 348 349 349 350 349 348 348 348 348
301 302 306 307 308 309 310 310 311 312 312 311 312 313 315 315 311 314 314 313 313 316 320 324 326 329 328 327 329 330 330 331 333 333 333 335 335 335 336 335 337 338 339 339 340 340 341 340 341 344 344 345 345 346 347 347 348 349 347 347 346 347 346
299 302 306 309 309 309 308 310 312 313 313 313 313 313 314 315 314 315 314 313 312 318 322 324 326 328 329 327 326 327 327 329 330 330 332 333 333 335 334 334 336 337 339 340 341 341 339 340 342 346 346 347 347 348 348 348 347 348 348 348 346 346 346
296 301 301 305 308 307 305 304 307 311 311 310 312 311 314 312 310 312 314 311 312 319 324 325 325 324 323 323 324 325 326 329 329 327 327 330 331 333 334 335 336 336 338 340 340 340 341 341 340 340 340 344 346 347 348 347 349 349 349 349 349 347 346
294 300 302 301 302 301 298 299 301 309 312 313 314 315 317 315 316 312 310 311 319 321 324 322 323 324 324 323 324 324 327 329 329 327 328 330 332 333 332 333 336 337 337 338 339 341 343 343 340 341 342 341 340 341 343 346 350 349 347 348 348 348 349
294 298 301 302 296 289 290 305 311 311 310 310 309 310 314 317 318 315 319 319 321 322 323 322 322 324 325 326 329 330 327 329 329 328 329 332 333 334 335 335 335 336 336 338 340 341 342 343 344 344 346 344 343 343 344 345 343 343 341 343 344 346 347
293 298 299 295 288 290 303 311 313 313 313 312 310 311 315 317 319 320 319 320 320 321 324 324 325 326 328 330 330 330 333 332 330 330 331 332 331 332 334 335 336 336 335 337 339 340 340 341 341 341 340 343 343 343 344 344 343 343 341 340 340 343 343
296 293 291 287 289 302 307 310 313 313 312 311 311 308 311 316 319 319 318 319 322 325 324 325 325 325 327 328 328 329 331 332 331 329 329 330 331 330 331 332 334 334 335 335 335 336 339 340 340 340 339 341 342 342 344 342 343 343 342 341 342 343 343
292 293 292 293 300 301 302 305 306 307 303 305 306 301 305 312 319 319 318 318 320 322 324 325 324 326 325 323 324 330 330 330 331 331 331 331 331 332 332 334 333 334 334 333 334 334 335 336 337 338 339 341 340 340 340 341 341 341 341 341 342 343 343
295 293 291 292 290 288 294 303 308 312 312 314 313 307 302 311 317 321 320 317 318 320 321 323 323 326 319 316 319 327 331 331 330 332 332 333 333 334 334 334 334 333 333 333 334 334 333 333 334 336 338 339 339 338 337 337 337 337 338 339 342 343 342
293 291 287 287 288 293 299 304 308 311 313 312 313 303 299 308 314 321 320 319 319 319 319 319 319 315 311 312 319 328 331 330 331 331 332 333 334 333 333 332 331 331 331 332 333 333 333 331 332 334 334 334 334 332 333 333 334 334 335 337 339 340 341
294 292 290 290 295 294 302 306 309 312 314 311 303 291 291 307 315 321 321 319 318 319 319 319 317 313 310 313 321 331 331 330 328 328 329 330 331 332 333 333 332 331 332 331 330 330 329 329 332 332 332 332 332 330 330 331 331 332 334 335 337 339 340
297 298 293 295 298 305 308 309 311 313 315 303 291 286 298 309 317 321 321 321 320 319 319 319 317 319 319 323 327 329 326 323 323 325 328 328 329 328 329 330 331 328 327 328 327 328 327 329 330 331 330 329 328 329 329 329 330 332 334 336 336 336 337
293 292 291 292 295 303 309 311 312 314 306 292 292 302 309 314 319 321 322 321 321 322 321 321 321 322 325 327 327 324 322 321 321 323 323 323 323 325 327 328 327 325 326 326 327 327 328 328 330 330 329 328 327 327 327 327 328 331 332 331 330 331 333
294 293 290 286 284 298 312 312 311 312 299 299 304 311 315 319 320 321 322 322 321 323 321 322 321 320 322 323 322 322 321 320 319 319 318 317 318 319 321 323 326 325 323 323 324 325 327 328 327 326 326 326 325 326 325 327 330 331 331 328 327 327 327
289 289 288 288 297 305 312 310 304 310 311 313 314 312 312 317 319 319 319 320 321 322 321 319 319 320 320 320 321 320 320 319 318 317 317 317 318 320 322 323 324 325 322 322 322 324 326 328 328 327 325 324 325 324 323 327 330 332 331 330 329 329 330
295 292 297 304 307 310 312 314 313 314 315 316 316 316 316 317 317 320 319 320 321 322 321 320 320 319 319 319 320 319 318 318 318 317 316 316 317 319 320 321 324 323 321 321 323 324 325 326 326 326 327 327 326 324 326 331 331 328 326 328 329 330 328
306 307 307 309 309 310 311 314 315 314 314 315 317 318 317 318 319 320 320 321 322 322 322 321 319 320 319 319 318 318 318 318 319 319 315 315 316 317 319 320 322 322 322 322 322 322 322 324 325 326 324 324 324 323 327 332 329 326 326 327 328 328 330
295 294 307 307 308 310 311 312 314 314 314 314 314 315 315 318 320 321 322 320 320 321 321 321 319 319 320 319 318 316 316 317 317 317 313 314 314 315 317 320 321 319 320 319 319 318 318 320 322 324 322 323 323 323 324 325 326 324 324 325 326 325 323
295 299 305 308 311 311 312 311 311 311 313 314 315 315 317 319 322 323 323 323 322 323 322 322 321 320 321 320 318 318 319 317 317 318 316 313 314 316 318 320 319 318 318 317 318 318 318 318 320 321 322 322 323 321 321 323 323 324 326 324 321 320 323
302 306 307 309 311 311 312 313 313 313 313 313 314 314 315 318 321 322 323 324 323 323 321 321 321 319 318 319 319 319 318 318 317 317 318 317 317 318 320 320 320 318 318 318 318 319 318 318 319 321 322 322 320 318 322 323 320 323 326 323 325 320 320
298 300 304 308 303 301 307 311 313 313 314 314 314 314 314 314 315 318 321 322 323 324 324 323 321 319 317 318 319 319 319 318 315 316 317 318 318 319 319 320 320 320 321 319 319 318 317 318 319 320 320 322 323 324 322 321 321 324 326 323 320 320 321
298 303 308 306 308 307 309 312 313 314 313 313 313 313 313 314 314 314 316 319 319 320 322 324 323 319 319 319 319 319 319 319 318 317 317 318 318 318 318 318 318 318 319 321 320 319 318 320 321 322 321 321 322 324 323 322 322 321 322 324 322 321 323
306 309 310 311 311 309 310 313 313 312 313 312 312 313 315 315 315 315 314 314 315 317 321 323 324 322 321 320 319 318 319 319 319 319 318 319 319 319 318 318 318 318 318 319 318 319 317 319 319 320 321 320 320 322 322 322 322 321 322 323 320 319 318
307 312 312 311 312 312 313 314 314 314 315 313 312 313 314 315 316 316 315 315 315 315 315 317 320 322 322 321 319 317 318 320 321 323 323 324 323 319 318 318 317 318 317 316 315 316 316 317 319 320 318 319 319 321 321 322 322 321 320 322 318 317 321
Wind_Speed
9 13 11 7 13 6 6 4 4 5 3 9 6 3 2 4 4 1 2 3 2 2 2 6 4 8 10 9 8 8 8 11 13 11 4 3 8 11 10 12 12 13 13 13 11 12 13 13 13 13 13 12 12 11 11 11 10 9 10 9 8 6 6
2 6 9 8 14 7 6 1 7 0 2 4 6 4 1 0 2 1 2 5 1 2 2 3 9 9 11 12 12 10 8 7 10 10 6 4 4 6 10 12 12 14 13 13 11 12 14 15 15 14 14 13 12 12 12 12 10 11 10 9 9 7 7
4 3 5 1 5 6 13 12 7 5 2 0 2 5 2 2 1 2 2 4 3 6 4 4 10 13 13 14 12 11 9 8 11 11 9 5 3 5 6 5 9 13 13 12 11 13 14 14 15 14 13 13 11 11 12 12 12 12 12 9 8 7 7
4 5 7 2 6 2 2 5 7 3 5 4 4 5 4 5 1 1 2 2 4 6 5 10 11 11 12 14 12 12 11 10 10 12 10 7 5 5 10 11 12 13 14 13 12 13 14 15 14 13 14 12 13 12 12 11 9 9 9 9 8 9 8
11 7 6 10 8 6 4 3 2 1 1 2 5 1 4 5 5 2 2 1 5 5 4 9 11 11 12 14 14 12 11 11 12 13 12 9 6 6 10 9 10 13 14 13 13 13 13 14 13 13 13 13 13 12 12 12 12 11 10 10 8 8 7
1 2 4 7 9 7 6 7 5 7 2 3 4 3 1 3 5 4 3 4 3 4 3 7 9 10 11 12 13 13 13 13 11 10 9 8 5 6 11 11 11 12 14 14 12 12 12 13 13 14 13 12 12 12 12 12 11 10 10 10 9 8 7
5 7 8 4 7 6 6 9 7 7 4 5 4 3 4 3 1 5 3 2 1 2 3 5 6 9 11 14 11 8 7 8 8 7 5 3 2 3 10 10 11 12 13 14 14 15 14 15 15 15 13 12 12 12 11 11 11 11 10 10 9 8 7
8 6 4 5 4 4 0 2 1 5 5 6 7 6 6 6 3 3 1 0 2 3 2 4 7 8 9 9 13 13 10 9 9 9 8 4 2 3 4 6 9 11 12 13 12 13 13 13 14 14 13 12 12 11 11 11 12 11 10 9 9 8 8
8 9 10 9 8 6 2 4 4 3 3 4 2 2 2 6 7 8 6 3 1 2 1 4 5 7 8 9 9 10 11 8 9 9 9 9 1 2 6 3 7 10 12 13 13 14 12 12 13 13 12 12 12 12 11 11 11 11 10 9 9 9 10
4 3 4 4 6 7 6 2 6 6 5 6 3 1 0 4 2 3 3 2 1 2 1 4 5 7 6 6 9 8 9 11 10 9 9 7 1 2 2 3 1 10 12 12 13 13 11 12 12 12 12 13 12 12 12 12 11 11 11 9 9 9 10
1 3 5 6 1 3 5 7 12 9 7 2 4 5 4 4 4 3 4 5 6 2 2 4 4 7 8 8 7 8 7 7 8 8 9 9 5 1 1 3 4 8 4 10 14 13 13 12 13 12 13 12 13 12 12 12 11 11 11 10 10 10 10
1 4 6 7 6 2 5 5 10 9 7 3 6 5 5 5 8 3 3 3 6 3 3 3 3 3 4 5 6 6 7 8 10 10 10 13 8 4 1 5 6 5 10 15 4 14 13 13 13 13 12 13 13 13 13 12 11 11 9 11 11 11 10
10 13 13 16 13 6 5 11 15 14 13 14 8 2 2 3 4 5 6 13 9 5 3 3 3 3 6 8 8 5 3 5 7 10 12 12 9 6 5 5 6 9 8 4 14 10 11 13 15 13 13 12 12 12 12 12 11 12 10 10 11 11 10
12 12 14 9 7 11 14 11 12 15 16 14 12 14 14 17 12 11 13 15 14 8 7 9 8 9 10 8 8 10 11 10 5 4 8 11 12 9 8 6 7 8 8 7 2 7 9 12 13 12 12 12 11 11 10 8 9 7 8 9 10 11 11
4 5 6 13 13 17 15 13 11 14 17 17 15 13 10 13 13 13 14 15 11 5 4 7 6 7 8 9 10 9 9 9 9 10 7 4 4 5 5 5 5 8 9 9 8 1 8 11 1 11 11 10 10 11 10 10 9 8 9 9 9 10 11
3 5 4 9 14 15 16 14 16 14 16 16 13 11 6 6 6 8 14 12 5 4 4 7 9 10 11 9 7 7 7 6 9 9 5 8 7 7 5 6 6 4 7 8 8 9 5 3 5 5 3 3 10 10 10 11 10 9 9 10 10 9 8
2 4 8 5 4 10 12 12 11 10 12 11 12 12 15 9 4 13 8 4 2 4 3 8 8 11 9 7 4 5 5 5 5 4 7 8 7 3 4 2 4 6 7 6 6 6 6 3 3 2 4 6 9 12 10 3 4 7 7 4 3 3 3
1 6 5 7 7 7 2 6 5 9 12 14 17 13 13 16 13 6 7 7 5 7 8 9 9 12 10 7 5 2 3 4 6 5 3 8 7 2 1 2 1 3 2 7 8 8 7 6 7 9 10 8 8 10 9 10 11 9 11 8 5 4 5
1 2 6 10 5 2 4 1 6 9 7 16 16 14 15 13 11 11 11 11 9 7 3 7 9 10 10 10 8 7 4 5 7 8 9 10 9 6 3 3 3 1 2 6 3 8 9 8 7 10 12 9 8 8 8 6 2 2 6 7 5 4 5
1 3 3 4 2 4 6 9 9 9 2 2 11 13 14 13 11 7 8 9 9 9 8 8 8 9 8 8 8 9 8 6 5 7 7 8 9 11 10 9 6 4 6 5 6 9 7 8 8 9 10 9 9 6 5 6 4 4 3 4 5 5 6
2 1 4 5 3 0 4 1 3 7 4 3 7 6 7 7 7 6 4 4 4 4 4 5 6 5 5 8 8 8 8 8 8 7 6 5 6 6 6 9 12 9 9 7 6 7 8 8 8 8 8 10 10 7 4 1 4 5 5 6 6 5 3
3 8 6 2 2 1 2 2 6 4 3 1 1 6 2 5 6 4 4 3 1 1 0 2 3 1 2 8 5 6 5 4 5 5 6 6 5 5 6 7 8 9 10 9 7 8 9 8 6 5 5 5 6 7 5 3 5 6 7 7 5 5 4
4 5 5 1 2 2 2 8 8 11 3 5 1 6 4 4 4 4 4 3 1 2 3 3 3 3 4 1 2 3 3 4 4 6 7 6 6 6 6 6 8 8 8 8 7 8 9 9 6 5 6 7 7 6 5 6 6 6 5 4 5 5 5
1 5 3 2 1 1 3 8 10 8 10 1 4 1 2 2 3 3 4 3 1 2 2 3 5 3 6 4 1 2 4 4 4 5 6 7 8 8 7 7 6 5 5 6 7 8 10 9 8 8 8 8 9 7 6 6 7 6 5 4 4 3 5
3 6 1 2 1 3 2 6 9 11 5 3 3 4 3 1 1 3 4 4 3 1 1 2 3 3 2 4 3 3 4 6 8 8 7 7 6 6 6 6 5 5 6 8 9 8 6 6 8 9 9 10 9 7 7 8 8 6 5 5 6 6 6
4 1 5 1 2 3 4 7 6 5 2 1 6 4 2 4 3 3 4 5 4 5 6 6 6 6 5 5 6 6 5 5 6 8 8 9 8 7 6 6 5 6 6 8 8 9 6 6 6 8 9 10 8 8 9 9 6 5 6 7 6 7 8
3 4 5 3 1 3 6 10 4 4 6 5 4 3 3 3 4 5 4 4 3 6 8 6 6 6 5 6 5 4 4 6 7 8 8 7 8 7 6 5 3 3 5 6 7 7 6 6 7 8 10 10 8 8 9 6 4 4 5 5 7 8 8
3 2 2 2 3 5 8 2 4 2 1 5 4 5 4 3 4 4 5 3 3 4 8 7 6 5 6 4 4 4 4 4 5 6 6 7 7 7 7 6 5 6 6 6 7 7 8 7 7 6 8 9 7 7 6 2 2 2 2 2 4 7 8
2 4 3 2 2 1 4 5 3 3 3 3 4 6 4 5 2 2 5 4 3 4 6 6 6 5 3 3 3 4 3 3 4 4 4 6 7 7 6 6 5 5 6 6 7 7 7 7 6 5 5 7 6 5 1 0 2 3 3 3 3 4 4
4 4 3 4 3 4 6 6 5 6 5 4 4 6 5 2 3 3 6 3 4 4 4 7 3 4 4 5 3 3 2 2 2 2 3 3 4 5 5 5 6 6 6 6 6 6 5 5 5 4 5 5 6 3 2 2 2 3 3 4 5 5 4
6 2 1 5 4 3 4 5 6 7 6 4 3 4 3 3 4 4 2 4 4 3 3 5 6 5 5 5 4 3 2 1 0 1 2 2 3 4 4 5 5 5 5 5 4 4 4 3 4 4 4 3 3 3 4 3 3 3 4 4 3 3 3
3 5 4 3 2 3 3 4 6 6 7 8 7 4 3 3 4 4 4 3 3 3 5 5 6 5 4 5 4 3 1 1 2 0 1 2 1 1 3 4 4 5 4 4 3 3 2 0 2 3 3 3 1 2 3 3 2 2 2 1 1 1 2
4 5 4 5 7 6 5 4 3 3 4 7 8 7 7 5 5 5 5 4 4 5 6 5 6 6 4 5 5 5 4 3 3 3 3 3 3 4 6 4 4 5 4 3 2 2 1 1 2 2 1 1 2 2 2 3 2 2 0 1 2 2 2
6 7 7 9 7 2 1 2 4 4 4 6 7 8 9 6 5 4 5 5 4 5 5 6 5 6 4 4 5 5 4 3 3 4 5 5 6 5 5 5 6 6 5 5 4 4 3 3 3 3 3 2 1 2 2 2 3 3 2 3 4 3 2
7 6 8 3 7 6 5 5 3 4 3 6 8 6 6 6 5 4 4 4 4 4 3 3 6 4 4 4 4 5 4 4 3 4 5 7 6 6 5 7 6 6 5 5 5 4 4 4 4 4 3 3 2 2 2 2 2 3 3 2 3 3 3
1 7 8 7 9 8 4 4 4 4 4 7 6 5 5 6 6 7 7 4 3 2 3 3 4 5 3 3 3 4 3 2 3 4 4 4 5 5 4 7 7 6 5 5 5 4 4 4 4 4 4 3 3 3 3 3 3 3 3 3 3 2 2
6 5 6 5 9 7 5 6 5 4 4 5 6 5 6 6 6 7 8 7 7 7 6 5 4 2 4 3 3 2 1 1 1 2 4 4 4 4 5 5 6 6 6 5 4 4 4 4 4 4 4 2 2 3 3 3 3 3 2 3 4 3 1
Wind_Direction
138 140 155 156 136 143 217 134 225 216 207 121 102 57 65 101 69 256 180 283 273 248 229 172 180 173 188 177 170 162 161 174 189 196 218 246 197 169 177 173 172 172 168 173 162 162 167 170 172 174 173 175 176 175 179 180 181 181 185 185 184 185 184
290 151 150 151 172 139 99 292 251 306 60 86 117 134 232 92 134 225 167 235 232 112 279 136 154 175 182 184 181 174 166 163 179 191 193 216 208 186 171 172 172 173 170 171 163 165 169 173 174 174 174 176 176 175 179 179 179 181 188 186 185 185 183
227 98 82 21 273 147 152 195 191 158 240 121 36 96 133 156 242 207 248 223 247 192 238 165 186 181 185 184 180 170 167 177 186 195 201 206 214 168 134 170 181 175 175 174 165 166 171 173 174 172 172 173 174 178 180 182 183 184 184 185 185 186 184
174 90 92 230 270 304 152 110 176 195 111 157 147 210 150 114 173 77 284 93 255 206 211 186 195 189 179 177 177 179 179 182 191 199 196 194 207 190 169 188 190 181 179 177 171 167 167 173 173 171 170 171 175 177 178 183 186 183 182 186 183 187 189
146 161 178 184 204 179 212 72 222 215 258 210 118 127 141 160 159 186 150 292 262 264 210 175 192 181 176 175 174 181 186 187 190 192 196 190 190 196 188 187 193 181 179 178 176 171 165 168 169 170 172 174 176 175 178 179 180 184 187 188 183 190 186
18 244 225 176 162 187 176 148 191 177 152 108 141 242 0 112 112 184 135 229 265 268 162 191 181 171 167 176 182 182 189 193 190 188 189 180 181 203 191 188 191 182 177 176 174 169 160 162 169 173 174 172 173 177 178 179 179 185 188 189 187 188 188
275 270 280 230 159 200 178 153 212 179 156 126 106 151 254 89 72 121 159 122 287 242 166 183 179 170 172 169 185 193 190 188 189 184 158 148 162 240 193 190 189 184 174 173 171 169 166 165 168 170 171 174 175 177 176 179 179 187 187 189 186 185 187
286 300 317 83 121 193 46 241 189 131 178 181 186 179 183 127 177 72 22 228 242 268 200 180 176 175 174 168 173 184 187 193 196 180 166 175 236 274 268 179 189 184 175 171 167 170 166 168 168 169 171 173 173 174 176 177 184 183 184 187 185 183 188
338 344 356 1 353 43 30 304 291 207 183 186 176 92 54 105 207 166 126 208 276 283 326 136 155 153 163 174 184 177 175 174 170 171 174 178 170 331 279 219 183 185 174 170 172 171 169 170 170 169 168 172 172 176 175 181 185 184 182 183 182 185 188
50 2 349 314 317 310 278 287 326 319 225 205 110 182 63 123 269 124 138 231 258 291 17 119 143 147 155 172 174 178 176 169 165 160 161 153 138 309 335 346 275 195 176 174 172 171 168 169 170 171 171 171 174 174 181 181 183 181 185 180 183 183 188
169 215 227 254 218 321 13 342 53 23 6 69 125 120 126 177 188 179 241 176 134 142 125 111 133 145 144 142 152 161 156 173 174 159 153 161 195 97 357 40 25 12 313 181 173 171 168 171 169 172 173 175 175 179 183 184 183 181 182 180 183 183 189
203 213 227 263 276 18 11 31 49 24 20 56 98 128 203 195 103 228 346 5 122 123 85 69 96 104 104 110 119 129 145 161 169 170 167 165 172 129 97 61 52 71 39 344 254 173 170 171 172 171 177 175 178 181 185 185 184 182 180 181 183 185 188
7 4 25 58 52 75 63 53 57 44 29 36 64 357 89 96 114 161 66 69 62 14 52 57 42 40 63 47 45 34 85 133 158 160 164 175 177 162 108 89 83 74 74 54 353 309 184 169 173 172 175 178 180 184 183 183 182 184 179 180 183 184 187
34 3 47 38 104 64 46 31 49 59 49 32 37 60 68 86 91 91 80 69 58 24 29 60 61 75 79 76 70 57 43 24 20 147 171 178 182 170 139 137 128 114 109 101 99 337 300 185 167 169 171 174 175 173 175 173 173 174 166 183 181 184 188
23 340 63 75 59 73 63 34 30 56 56 41 25 40 43 78 65 65 68 65 58 14 356 65 65 70 73 63 66 85 94 75 42 13 14 39 47 50 82 101 123 122 114 121 120 17 14 340 180 159 162 165 162 160 160 161 160 163 157 165 180 185 192
358 17 313 89 77 73 58 29 14 29 54 49 21 38 354 41 91 71 61 53 27 334 358 56 51 62 65 67 65 54 41 68 107 104 54 17 31 59 70 44 27 58 107 128 129 119 93 28 8 25 43 140 157 162 162 163 160 156 156 166 173 181 189
317 316 2 236 67 49 34 6 332 349 62 81 60 42 33 24 52 59 63 83 346 346 333 70 52 62 63 52 28 67 78 73 57 39 87 76 71 74 146 130 126 128 125 93 74 69 91 77 355 344 99 83 38 15 4 1 129 145 137 104 91 131 125
302 7 21 49 49 53 315 266 319 338 58 58 61 36 33 34 43 73 79 84 51 29 19 59 62 64 65 73 62 76 135 124 130 136 119 93 88 115 39 156 71 21 39 129 129 110 92 73 43 20 18 49 71 73 40 7 16 45 66 63 51 57 74
273 101 42 58 46 115 199 196 34 314 51 77 68 48 34 39 55 70 71 78 89 81 45 67 69 67 65 63 70 78 95 127 130 123 113 110 109 94 139 132 28 2 28 11 49 89 71 56 54 54 37 47 74 82 92 86 65 73 118 141 156 140 124
12 45 56 95 166 141 170 175 178 236 271 49 66 39 23 20 24 44 71 77 89 114 107 81 76 73 70 64 44 30 19 15 28 70 84 107 109 107 111 118 105 77 50 40 50 63 74 84 85 87 94 94 87 93 118 136 162 141 151 169 186 149 141
112 129 74 101 123 348 3 77 342 357 343 320 102 86 10 2 13 28 58 61 64 68 94 117 116 104 68 57 38 30 30 27 28 37 48 43 60 82 89 104 114 110 94 68 59 69 72 83 95 105 126 126 130 131 119 150 102 81 64 34 7 3 37
102 103 93 49 20 95 266 228 284 309 312 326 93 104 359 349 6 23 62 72 112 154 244 219 180 180 28 38 6 17 24 40 66 62 65 59 52 54 82 79 81 86 94 100 87 84 81 75 74 79 81 93 107 114 109 67 59 64 73 64 47 48 49
39 50 109 148 142 240 228 305 309 302 306 260 156 68 21 302 350 10 64 68 31 266 238 272 359 51 78 11 310 323 38 45 50 73 65 63 63 70 54 67 91 103 108 108 102 95 94 82 53 61 90 95 90 81 78 85 86 76 70 84 88 88 81
88 142 106 156 192 232 294 302 302 297 306 280 95 56 283 279 326 17 53 65 94 285 313 41 65 70 127 179 219 338 77 67 67 76 84 79 80 72 68 59 58 75 88 88 85 89 89 89 90 89 91 87 84 78 69 72 75 73 69 75 77 79 81
113 99 119 62 348 290 267 291 295 302 304 75 80 174 234 271 7 37 66 68 59 63 26 342 81 25 108 126 122 82 74 74 68 69 73 74 65 68 65 63 60 69 71 79 79 70 60 84 106 108 108 99 94 90 82 66 55 46 42 57 67 70 75
49 88 104 180 233 230 288 297 264 289 20 80 163 231 186 141 87 52 73 81 74 91 95 100 94 98 87 80 81 85 83 90 91 87 87 79 70 69 74 77 75 72 66 71 76 72 67 63 60 68 76 80 82 83 79 69 50 37 54 52 48 48 56
41 36 71 39 44 283 329 311 339 13 104 208 209 126 41 114 105 97 67 85 93 103 94 89 97 89 70 78 80 80 79 88 94 94 88 86 90 85 81 80 69 81 76 74 72 78 76 63 56 65 77 77 74 76 79 77 72 75 76 89 90 85 77
124 71 93 183 218 257 318 41 123 316 144 173 152 117 85 67 111 100 98 79 118 110 113 113 96 92 97 77 81 67 59 69 76 85 90 93 92 89 87 87 83 79 78 73 72 65 63 62 61 60 76 86 84 83 92 126 92 82 84 81 91 93 94
136 182 182 209 209 299 342 33 84 84 59 89 108 100 122 119 81 130 107 118 94 102 112 105 114 105 90 104 93 96 84 80 82 91 102 107 110 109 104 90 79 78 81 74 66 58 52 62 64 70 78 97 98 93 106 52 74 82 79 72 65 74 82
86 64 119 148 61 53 42 36 45 58 50 35 78 102 101 93 142 147 128 128 121 117 127 118 99 115 128 107 86 88 86 79 45 48 65 75 92 96 95 87 88 89 77 73 74 72 59 61 70 70 72 89 97 100 65 64 57 72 72 57 51 60 82
75 97 3 99 105 65 57 57 47 53 55 57 62 77 94 139 121 104 96 127 138 143 125 122 122 123 123 118 124 114 107 60 17 36 119 140 130 119 107 117 110 92 91 93 93 96 89 70 85 87 87 87 112 116 100 104 104 104 94 76 57 37 38
113 166 178 128 102 83 67 65 69 48 42 50 51 71 93 95 85 100 130 131 89 101 114 126 114 114 111 106 94 76 129 223 228 268 201 177 155 138 112 117 111 107 105 105 98 85 96 38 63 65 72 72 45 62 66 72 87 101 100 115 115 108 63
51 61 82 100 73 57 50 62 58 75 74 69 56 58 59 50 65 72 67 80 107 104 118 106 103 90 75 95 99 89 70 73 79 96 123 154 141 130 118 124 127 125 124 114 112 106 69 66 96 90 84 68 89 90 67 64 70 76 76 71 56 39 35
152 169 183 145 118 144 184 87 97 78 65 78 72 63 58 53 52 54 81 60 62 94 113 119 114 121 114 101 102 94 88 84 105 103 102 105 104 106 118 118 117 111 112 116 106 92 73 73 81 88 90 91 83 77 76 67 66 51 44 75 82 71 51
198 215 186 175 129 137 185 165 148 94 80 76 70 65 72 61 62 63 77 81 67 75 74 95 112 119 125 128 109 102 94 80 85 108 109 110 113 125 126 110 105 110 117 113 104 94 89 79 74 79 73 52 53 42 67 80 89 91 69 80 73 43 52
100 160 170 161 133 152 183 175 129 108 101 91 82 81 83 79 75 70 64 60 90 69 82 86 120 131 116 120 112 119 99 84 67 68 79 104 125 130 129 131 135 127 121 114 114 115 99 91 90 85 76 51 58 41 40 49 67 76 95 117 115 94 74
170 172 158 139 123 125 133 135 129 126 113 101 102 102 102 88 76 75 73 65 60 70 58 39 23 86 135 148 135 135 129 94 93 86 73 92 106 116 135 129 132 137 142 144 140 130 119 112 110 107 91 66 45 40 45 63 77 71 92 140 134 147 142